Погода в Обихиро

Япония     42°54′15″N   143°10′02″E
темп.,
°C
ветер,
м/с
пор.,
м/с
влажн.,
%
обл.,
%
осадки,
мм/ч
давл.,
гПа
погр.,
м
26 октября, вт
вт2600:00+5ссз118637 0.0 102410
03:00+5ссз1184100 0.0 102410
06:00+5с1183100 0.0 102310
09:00+9св0072100 0.0 1023174
12:00+12в1171100 0.0 1020437
15:00+12юв1281100 0.0 1019246
18:00+9с1190100 0.1 101810
21:00+9ссз1192100 0.1 101611
27 октября, ср
ср2700:00+7ссз119274 0.0 101410
03:00+6сз119178 0.0 101310
06:00+6сз11885 0.0 101310
09:00+12зсз24730 0.0 1014330
12:00+16зюз235597 0.0 1012940
15:00+14ююв3572100 0.0 1012151
18:00+9ююв018399 0.0 101310
21:00+8ююв008712 0.0 101410
28 октября, чт
чт2800:00+7св1189100 0.0 101310
03:00+8с128986 0.3 101244
06:00+7с009190 0.0 101210
09:00+12зсз12783 0.0 1012193
12:00+15зсз67585 0.0 10111409
15:00+13сз69663 0.0 1012436
18:00+9зсз71374100 0.0 1014396
21:00+8зсз51076100 0.0 1015311
29 октября, пт
пт2900:00+6зсз612803 0.0 1015345
03:00+7зсз61183100 0.0 1016545
06:00+8зсз5107485 0.0 1017597
09:00+11зсз69690 0.0 1017903
12:00+13зсз665561 0.0 10161433
15:00+11сз576626 0.0 1018421
18:00+6сз38825 0.0 1020191
21:00+5ссз36840 0.0 1020113
30 октября, сб
сб3000:00+4сз35840 0.0 102088
03:00+4ссз35840 0.0 102194
06:00+3ссз22840 0.0 102323
09:00+8сз23670 0.0 1025376
12:00+13зсз12510 0.0 1024785
15:00+13ююв12600 0.0 102451
18:00+7юв11845 0.0 102711
21:00+5св119042 0.0 102710